This demonstration page uses our WeatherBlox Daily Observations layout. Learn more.

41.55636, -103.73856

Hourly Observations for October 17, 2019

Temp ( °F °C ) Dew Point ( °F °C ) Humidity (%) Winds ( mph kmh ) Pressure ( in mb ) Visibility ( mi km ) Precip ( " mm )
12:58 am 00:58 Clear 59 15.2 24 -4.5 26 26 S 3 6 29.96 1015 10 16.0934 0 0
1:58 am 01:58 Clear 57 14 23 -4.8 27 27 S 8 13 29.98 1015 10 16.0934 0 0
2:58 am 02:58 Clear 55 12.9 23 -5.1 28 28 SW 5 7 29.94 1014 10 16.0934 0 0
3:58 am 03:58 Clear 53 11.6 23 -5.2 31 31 SSW 5 7 29.91 1013 10 16.0934 0 0
4:58 am 04:58 Clear 51 10.8 22 -5.3 32 32 SSW 8 13 29.89 1012 10 16.0934 0 0
5:58 am 05:58 Clear 53 11.4 22 -5.4 31 31 WSW 6 9 29.87 1012 10 16.0934 0 0
6:58 am 06:58 Clear 53 11.4 24 -4.5 33 33 SSW 10 17 29.88 1012 10 16.0934 0 0
7:58 am 07:58 Clear 53 11.5 22 -5.3 31 31 Calm 29.83 1010 10 16.0934 0 0
8:58 am 08:58 Clear 52 11 21 -5.9 30 30 WNW 3 6 29.82 1010 10 16.0934 0 0
9:58 am 09:58 Clear 48 9.1 21 -6 34 34 WNW 5 7 29.81 1010 10 16.0934 0 0
10:58 am 10:58 Clear 47 8.2 20 -6.7 34 34 SW 13 20 29.81 1010 10 16.0934 0 0
11:58 am 11:58 Clear 51 10.7 15 -9.4 24 24 SSW 8 13 29.8 1009 10 16.0934 0 0
12:58 pm 12:58 Clear 46 7.9 17 -8.5 31 31 Calm 29.83 1010 10 16.0934 0 0
1:58 pm 13:58 Sunny 50 10 17 -8.6 26 26 W 3 6 29.8 1009 10 16.0934 0 0
2:58 pm 14:58 Sunny 53 11.8 22 -5.3 30 30 W 3 6 29.79 1009 10 16.0934 0 0
3:58 pm 15:58 Sunny 61 15.9 27 -2.8 28 28 Calm 29.75 1007 10 16.0934 0 0
4:58 pm 16:58 Sunny 66 18.9 22 -5.3 19 19 Calm 29.71 1006 10 16.0934 0 0
5:58 pm 17:58 Sunny 74 23.4 20 -6.7 13 13 Calm 29.67 1005 10 16.0934 0 0
6:58 pm 18:58 Sunny 79 26.2 15 -9.7 9 9 SSW 7 11 29.61 1003 10 16.0934 0 0
7:58 pm 19:58 Sunny 81 27.2 15 -9.7 8 8 SW 8 13 29.57 1001 10 16.0934 0 0
8:58 pm 20:58 Sunny 80 26.6 14 -10.1 8 8 SSW 13 20 29.55 1001 10 16.0934 0 0
9:58 pm 21:58 Sunny 79 26.2 15 -9.6 9 9 SW 9 15 29.54 1000 10 16.0934 0 0
10:58 pm 22:58 Sunny 76 24.6 14 -9.8 9 9 SSW 9 15 29.54 1000 10 16.0934 0 0
11:58 pm 23:58 Sunny 69 20.4 14 -9.9 12 12 S 12 19 29.53 1000 10 16.0934 0 0

Powered by AerisWeather